Regional Weather Roundup
Issued by NWS

Home | Current Version | Previous Version | Text Only | Print | Product List | Glossary Off
Versions: 1 2 3 4 5 6 7 8 9 10 11 12 13 14 15 16 17 18 19 20 21 22 23 24 25 26 27 28 29 30 31 32 33 34 35 36 37 38 39 40 41 42 43 44 45 46 47 48 49 50

000
ASUS43 KMKX 071700
RWRWI

WISCONSIN REGIONAL WEATHER ROUNDUP
NATIONAL WEATHER SERVICE MILWAUKEE/SULLIVAN WI
1100 AM CST WED DEC 07 2016

NOTE: "FAIR" INDICATES FEW OR NO CLOUDS BELOW 12,000 FEET WITH NO
SIGNIFICANT WEATHER AND/OR OBSTRUCTIONS TO VISIBILITY.

WIZ001-002-006>008-014>016-023>028-071800-
NORTHWEST WISCONSIN

CITY           SKY/WX    TMP DP  RH WIND       PRES   REMARKS
SUPERIOR ARPT  CLOUDY    20  11  68 W21G26    29.84R WCI   4
ASHLAND        FLURRIES  20  11  68 W24G31    29.81R WCI   3
HAYWARD        LGT SNOW  17   9  70 SW10G22   29.86R WCI   5
SIREN          FLURRIES  18   9  67 W21G31    29.93R WCI   2
CUMBERLAND     FLURRIES  18  10  73 W18       29.92R WCI   2
RICE LAKE      FLURRIES  18  11  73 SW15G23   29.96R WCI   4
CHETEK         FLURRIES  19  12  74 MISG      29.95R
LADYSMITH      LGT SNOW  19  12  76 SW18G25   29.90R WCI   3
EAU CLAIRE     NOT AVBL
MENOMONIE      LGT SNOW  19  13  74 SW16G25   30.00R WCI   5
NEW RICHMOND   LGT SNOW  20  12  71 W21       29.98S WCI   4
OSCEOLA        LGT SNOW  20  12  70 W23G29    30.03R WCI   3
$$

WIZ003>005-009-010-017-018-071800-
NORTH CENTRAL WISCONSIN

CITY           SKY/WX    TMP DP  RH WIND       PRES   REMARKS
MANITOWISH WTR LGT SNOW  16  10  78 W20G30    29.75F WCI  -1
ARBOR VITAE    LGT SNOW  19  12  75 W21G29    29.78S WCI   2
WOODRUFF       LGT SNOW  19  12  75 W21G29    29.78S WCI   2
RHINELANDER    LGT SNOW  17  12  80 W22G32    29.80R WCI   0
EAGLE RIVER    LGT SNOW  17  10  75 W20G29    29.76S WCI   1
LAND O LAKES   FLURRIES  18  10  70 SW15G24   29.76S WCI   3
PHILLIPS       LGT SNOW  16  11  80 W16G23    29.82S WCI   1
TOMAHAWK       LGT SNOW  17  10  77 SW9G18    29.85R WCI   5
MEDFORD        LGT SNOW  16  10  78 W17G24    29.88R WCI   0
MERRILL        LGT SNOW  18  12  77 W15G22    29.88R WCI   3
$$

WIZ029-030-035-036-043>047-071800-
CENTRAL WISCONSIN

CITY           SKY/WX    TMP DP  RH WIND       PRES   REMARKS
WAUSAU         FLURRIES  19  12  74 W16G24    29.89S WCI   4
MOSINEE        FLURRIES  18  14  86 W18G25    29.92R WCI   2
MARSHFIELD     CLOUDY    19  11  70 W18G26    29.91S WCI   4
STEVENS POINT  CLOUDY    18  11  73 W15G22    29.94S WCI   4
WAUPACA        PTSUNNY   25  15  66 W17G25    29.96S WCI  11
WAUTOMA        FLURRIES  22  14  71 W20       29.98F WCI   7
WISC RAPIDS    PTSUNNY   21  13  71 W13G22    29.97S WCI   9
CAMP DOUGLAS   NOT AVBL
$$

WIZ011>013-019>022-031-037>040-048>050-071800-
NORTHEAST WISCONSIN

CITY           SKY/WX    TMP DP  RH WIND       PRES   REMARKS
ANTIGO         LGT SNOW  16  11  79 W21G29    29.84S WCI  -1
SHAWANO        CLOUDY    24  14  67 W10G22    29.91F WCI  13
OCONTO         CLOUDY    23  13  65 W17G26    29.90R WCI   9
STURGEON BAY   CLOUDY    24  16  71 SW23      29.88F WCI   9
GREEN BAY      FLURRIES  25  16  68 W24G36    29.92F WCI   9
MANITOWOC      PTSUNNY   25  16  68 W17G33    29.94S WCI  11
APPLETON       PTSUNNY   21  12  68 W20       29.94R WCI   6
CLINTONVILLE   CLOUDY    23  14  68 W14       29.93S WCI  11
OSHKOSH        PTSUNNY   23  14  68 W15G24    29.97S WCI  10
$$

WIZ032>034-041-042-053>061-071800-
SOUTHWEST WISCONSIN

CITY           SKY/WX    TMP DP  RH WIND       PRES   REMARKS
LA CROSSE      MOSUNNY   22  12  65 SW13      30.08S WCI  10
SPARTA         FLURRIES  19  13  76 W10G18    30.05S WCI   8
VIROQUA        CLOUDY    16  11  78 W15G23    30.04S WCI   2
BOSCOBEL       PTSUNNY   21  11  65 W10G18    30.11F WCI  10
PRAIRIE DU CHI MOSUNNY   19  10  67 W15       30.13S WCI   5
PLATTEVILLE    PTSUNNY   19  13  77 W18       30.10S WCI   4
$$

WIZ056-057-062-063-064-067-068-071800-
SOUTH CENTRAL WISCONSIN

CITY           SKY/WX    TMP DP  RH WIND       PRES   REMARKS
REEDSBURG      MOSUNNY   19  12  72 W16G23    30.04S WCI   5
BARABOO/DELLS  MOSUNNY   19  12  72 W14       30.02S WCI   6
LONE ROCK      NOT AVBL
MINERAL POINT  MOSUNNY   19  14  79 W17       30.06S WCI   4
MADISON        CLOUDY    20  12  71 W9        30.04S WCI   9
MIDDLETON      NOT AVBL
WATERTOWN      SUNNY     22  15  76 W12       30.03S WCI  10
MONROE         MOSUNNY   21  14  73 W20       30.06S WCI   6
JANESVILLE     PTSUNNY   23  16  74 W15G21    30.07S WCI  10
$$

WIZ051-052-058>065-066-070>072-071800-
SOUTHEAST WISCONSIN

CITY           SKY/WX    TMP DP  RH WIND       PRES   REMARKS
MILWAUKEE      PTSUNNY   28  15  58 W14G22    30.02S WCI  17
WAUKESHA       SUNNY     23  16  74 SW14      30.03R WCI  11
MILWAUKEE/TIMM SUNNY     27  14  59 W15G24    30.02S WCI  15
RACINE         PTSUNNY   26  16  65 W17G24    30.05S WCI  13
BURLINGTON     MOSUNNY   24  17  76 W14G21    30.05S WCI  12
KENOSHA        CLOUDY    26  18  71 W21       30.04F WCI  12
FOND DU LAC    PTSUNNY   22  12  65 SW17G23   29.99S WCI   8
SHEBOYGAN      SUNNY     24  15  68 W23       29.96S WCI   9
WEST BEND      NOT AVBL
JUNEAU         MOSUNNY   20  13  76 SW18G25   30.03S WCI   4
$$

LSZ147-162-071800-
LAKE SUPERIOR

STATION/POSITION TIME  TEMP    WIND        PRES    WAVE
                       AIR SEA DIR/SP/G            HT/PER
                 (UTC) (F)     (DEG/KT/KT) (MB)    (FT/S)
DEVILS ISLAND    1600   24     250/ 35/ 42 1007.2R
PORT WING        1640   21     230/ 15/ 24 1009.8R
SAXON HARBOR     1630   21     230/ 13/ 22 1009.1R
$$

LMZ867-665-643>646-071800-
LAKE MICHIGAN

STATION/POSITION TIME  TEMP    WIND        PRES    WAVE
                       AIR SEA DIR/SP/G            HT/PER
                 (UTC) (F)     (DEG/KT/KT) (MB)    (FT/S)
CHAMBERS ISLAND  1640   24     230/ 12/ 20 1010.8S
NORTHPORT PIER   1640   26     240/  9/ 18 1010.8S
SISTER BAY       1553   28     300/ 23/ 29   N/A
ALGOMA LAKESHORE 1436          270/ 18/ 26   N/A
KEWAUNEE LAKESHO 1630   24     280/ 18/ 26 1012.6S
SHEBOYGAN LAKESH 1600   23     250/ 18/ 22 1015.7R
PORT WASHINGTON  1640   26     270/ 10/ 22 1016.3S
MILWAUKEE LAKESH 1630   26     270/ 17/ 23   N/A
KENOSHA   LAKESH 1600   25     250/ 15/ 18 1017.9
$$

TC  - TEMPERATURE IN CELSIUS
VSB - VISIBILITY IN STATUTE MILES
WCI - WIND CHILL INDEX
HX  - HEAT INDEX





USA.gov is the U.S. government's official web portal to all federal, state and local government web resources and services.